Temperature
20 19 19 19 19 19 19 19 19 19 19 19 19 19 19 19 19 19 19 19 19 19 19 19 19 19 19 19 18 18 18 18 18 18 18 18 18 18 18 18 18 18 18
20 19 19 19 19 19 19 19 19 19 19 19 19 19 19 19 19 19 19 19 19 19 19 19 19 19 19 18 18 18 18 18 18 18 18 18 18 18 18 18 18 18 18
20 20 19 19 19 19 19 19 19 19 19 19 19 19 19 19 19 19 19 19 18 18 18 18 18 18 18 18 18 18 18 18 18 18 18 18 18 18 18 18 18 18 18
20 20 19 19 19 19 19 19 19 19 19 19 19 19 19 19 19 19 19 19 18 18 18 18 18 18 18 18 18 18 18 18 18 18 18 18 18 18 18 18 18 18 18
20 20 19 19 19 19 19 19 19 19 19 19 19 19 19 19 19 19 19 18 18 18 18 18 18 18 18 18 18 18 18 18 18 18 18 18 18 18 18 18 18 18 18
20 20 19 19 19 19 19 19 19 19 19 19 19 19 19 19 19 19 18 18 18 18 18 18 18 18 18 18 18 18 18 18 18 18 18 18 18 18 18 18 18 18 18
20 19 19 19 19 19 19 19 19 19 19 19 19 19 18 18 19 18 18 18 18 18 18 18 18 18 18 18 18 18 18 18 18 18 18 18 18 18 18 18 18 18 18
20 19 19 19 19 19 19 19 19 19 19 19 19 18 18 18 18 18 18 18 18 18 18 18 18 18 18 18 18 18 18 18 18 18 18 18 18 18 17 17 18 18 18
19 19 19 19 19 19 19 19 19 19 19 19 19 19 18 18 18 18 18 18 18 18 18 18 18 18 18 18 18 18 18 18 18 18 18 18 18 17 17 17 17 18 18
19 19 19 19 19 19 19 19 19 19 19 19 19 18 18 18 18 18 18 18 18 18 18 18 18 18 18 18 18 18 18 18 18 18 18 18 18 17 17 17 18 18 18
19 19 19 19 19 19 19 19 19 19 19 19 19 18 18 18 18 18 18 18 18 18 18 18 18 18 18 18 18 18 18 18 18 18 18 18 18 18 17 17 17 18 18
19 19 19 19 19 19 19 19 19 19 19 19 19 18 18 18 18 18 18 18 18 18 18 18 18 18 18 18 18 18 18 18 18 18 18 18 18 18 18 18 18 18 17
19 19 19 19 19 19 19 19 19 19 19 19 19 19 18 18 18 18 18 18 18 18 18 18 18 18 18 18 18 18 18 18 18 18 18 18 18 18 18 17 17 17 17
19 19 19 19 19 19 19 19 19 19 19 19 19 18 18 18 18 18 18 18 18 18 18 18 18 18 18 18 18 18 18 18 18 18 18 18 18 18 17 17 17 17 17
19 19 19 19 19 19 19 19 19 19 19 19 19 18 18 18 18 18 18 18 18 18 18 18 18 18 18 18 18 18 18 18 18 18 18 18 18 18 17 17 17 17 17
19 19 19 19 19 19 19 19 19 19 19 18 18 18 18 18 18 18 18 18 18 18 18 18 18 18 18 18 18 18 18 18 18 18 18 17 18 18 17 17 17 17 17
20 20 19 19 19 19 19 19 19 19 19 18 18 18 18 18 18 18 18 18 18 18 18 18 18 18 18 18 18 18 18 18 18 17 17 17 17 17 17 17 17 17 17
20 20 19 19 19 19 19 19 19 19 18 18 18 18 18 18 18 18 18 18 18 18 18 18 18 18 18 18 18 18 18 17 17 17 17 17 17 17 17 17 17 17 17
20 20 19 19 19 19 19 19 19 18 18 18 18 18 18 18 18 18 18 18 18 18 18 18 18 18 18 17 17 17 17 17 17 17 17 17 17 17 17 17 17 17 17
20 19 19 19 19 19 19 19 18 18 18 18 18 18 18 18 18 18 17 17 17 17 17 17 17 17 17 17 17 17 17 17 17 17 17 17 17 17 17 17 17 17 17
20 19 19 19 19 19 19 19 18 18 18 18 18 18 17 17 17 17 17 17 17 17 17 17 17 17 17 17 17 17 17 17 17 17 17 17 17 17 17 17 17 17 17
20 19 19 19 19 19 19 18 18 18 18 18 17 17 17 17 17 17 17 17 17 17 17 17 17 17 17 17 17 17 17 17 17 17 17 17 17 17 17 17 16 16 16
20 19 19 19 19 19 18 18 18 18 18 18 17 17 17 17 17 17 17 17 17 17 17 17 17 17 17 17 17 17 16 16 16 17 17 17 17 16 16 16 16 16 16
20 20 19 19 19 19 18 18 18 18 18 18 18 17 17 17 17 17 17 17 17 17 17 17 17 17 17 17 16 16 16 16 16 16 16 16 16 16 16 16 16 16 16
20 20 19 19 19 19 19 18 18 18 18 18 17 17 17 17 17 17 17 16 16 16 16 16 16 16 16 16 16 16 16 16 16 16 15 16 16 16 16 16 16 16 16
20 20 19 19 19 19 19 18 18 18 18 18 17 17 17 17 17 17 16 16 16 16 16 16 16 16 16 16 16 16 16 15 15 15 15 15 15 16 16 16 16 16 16
Wind_Speed
1 2 4 5 5 6 6 8 10 12 12 12 13 13 13 13 14 14 14 13 13 12 12 12 12 11 11 13 15 15 14 13 13 13 12 12 12 12 12 12 12 10 13
4 3 5 6 6 6 7 7 10 11 12 12 12 12 12 12 12 13 13 12 12 12 12 11 11 11 12 13 14 14 13 13 13 12 12 11 12 12 12 12 11 10 13
4 4 6 6 7 8 7 8 10 11 11 11 11 12 11 11 11 11 12 11 11 11 11 11 11 11 12 12 12 13 13 12 11 11 10 9 10 11 11 11 11 12 12
4 4 5 6 7 8 8 9 10 11 11 10 11 11 11 11 10 10 11 10 10 11 11 11 11 11 11 12 12 12 12 11 10 9 7 7 8 10 11 11 11 11 12
3 3 5 7 7 7 9 9 9 10 9 10 10 11 11 10 10 9 9 9 10 10 10 10 10 10 10 11 11 11 11 11 10 8 6 6 7 9 11 11 11 11 12
3 3 4 7 8 8 9 8 8 8 8 8 9 9 9 9 9 9 8 8 8 9 9 9 9 9 10 10 10 10 11 10 9 6 6 6 7 9 11 11 11 11 12
3 2 2 4 7 8 8 8 7 7 7 7 8 8 8 8 7 7 7 7 7 7 8 8 9 9 9 9 10 10 10 10 8 7 6 6 7 9 10 10 11 11 11
3 2 2 4 7 8 7 7 7 6 6 6 6 7 7 6 6 5 6 6 6 6 6 7 8 8 9 8 9 9 9 9 8 7 6 6 8 10 10 10 10 10 11
4 3 3 3 4 5 6 6 6 5 5 5 5 6 5 6 5 4 3 4 4 4 5 5 6 7 8 8 9 9 9 8 7 6 6 6 8 10 10 10 10 11 11
3 3 3 3 3 2 3 4 4 5 5 4 5 5 5 4 3 2 2 2 3 3 3 4 5 6 6 7 9 9 9 7 6 6 5 5 7 8 9 9 9 10 11
1 2 2 2 3 2 2 2 3 3 4 4 4 4 4 3 3 1 1 1 1 1 2 3 4 4 5 5 7 8 7 5 6 5 4 6 7 8 9 10 10 10 10
1 0 1 1 2 1 1 2 2 2 3 3 3 3 4 3 2 2 3 2 1 1 1 1 2 3 3 2 3 4 3 5 5 5 5 7 8 9 9 10 10 10 10
2 1 1 1 1 2 2 2 2 3 3 3 3 3 3 3 3 3 3 3 4 3 2 2 1 1 2 2 2 2 3 3 3 4 5 7 7 8 8 9 10 11 10
2 1 1 2 2 2 2 2 2 2 2 2 3 3 3 2 2 2 2 2 3 2 3 2 2 2 2 2 2 2 3 2 3 3 4 6 7 7 8 9 9 10 10
3 3 2 2 2 2 2 1 2 1 1 1 2 3 3 2 2 2 2 2 2 2 2 2 2 2 2 2 1 2 3 2 3 3 3 5 6 6 7 7 8 9 9
3 3 3 3 2 2 2 1 1 2 2 2 2 2 3 2 2 2 2 2 2 2 1 2 2 2 1 1 1 1 1 2 2 2 3 3 4 5 6 7 7 8 9
4 3 4 4 3 3 2 2 2 2 2 2 2 2 2 2 2 2 1 1 1 1 2 2 2 2 2 2 1 1 1 1 2 2 2 2 2 3 5 6 7 7 8
4 4 3 4 4 3 3 2 2 3 3 2 2 2 3 2 2 2 1 1 1 1 1 2 2 2 1 1 1 1 1 1 1 1 1 2 1 2 3 4 5 6 6
4 4 3 3 3 3 3 2 3 3 2 2 2 2 2 2 2 2 1 1 1 2 2 1 2 2 1 1 1 1 0 0 1 1 1 2 2 2 2 3 4 5 5
3 4 3 3 3 4 3 3 3 3 2 2 2 2 2 2 2 2 1 1 1 2 2 1 2 2 1 1 1 1 1 0 0 1 2 1 2 2 2 3 3 4 5
4 4 3 3 3 3 2 2 2 1 1 1 1 2 2 2 2 2 1 2 1 2 1 1 1 2 2 1 2 2 2 1 0 1 2 1 1 2 2 2 3 3 4
4 4 4 3 3 3 3 2 2 2 1 1 1 2 2 2 2 2 2 1 1 1 2 2 2 2 1 2 1 1 1 2 2 1 1 1 2 2 2 3 3 3 4
5 5 5 4 3 3 3 3 3 2 2 2 2 1 2 2 2 2 2 1 2 2 1 1 1 2 1 1 1 2 2 2 1 2 1 1 1 1 2 2 3 4 4
6 5 4 3 3 3 3 4 4 3 1 1 0 0 1 2 2 2 2 2 1 1 1 1 1 1 2 1 0 0 1 2 1 1 2 2 2 2 2 2 3 4 5
6 5 4 4 3 3 3 4 4 2 2 1 1 1 1 2 2 1 2 1 1 1 1 1 2 1 1 1 1 0 0 0 1 1 2 2 2 2 2 3 3 3 4
5 5 5 4 3 3 4 4 4 4 3 2 1 1 1 1 1 1 1 1 1 1 1 1 1 1 1 1 1 1 1 1 1 1 2 2 3 3 2 2 2 3 5
Wind_Direction
205 202 164 144 130 127 122 122 126 127 128 128 131 132 136 139 145 147 149 150 150 151 151 152 151 148 145 151 151 150 151 152 154 157 157 155 154 153 155 154 153 152 152
165 172 160 148 139 132 125 121 126 127 130 130 131 132 136 140 143 146 149 151 153 154 154 153 152 150 146 144 148 150 154 157 158 161 161 159 160 160 161 162 161 160 159
140 161 158 153 146 136 131 129 128 130 128 130 134 135 136 140 142 148 150 152 154 156 158 157 156 153 151 152 154 156 158 162 162 164 163 161 167 170 170 169 167 166 166
143 154 161 155 148 143 136 132 128 128 128 130 133 138 139 138 143 149 152 154 157 161 163 164 164 162 160 159 162 163 164 165 163 164 163 168 176 181 181 178 174 170 169
116 133 160 158 155 149 141 135 130 129 130 130 134 138 140 142 144 147 153 157 161 164 165 167 169 170 168 167 168 169 170 170 167 168 166 175 183 189 189 183 179 174 174
101 114 159 159 156 145 139 136 134 131 129 130 134 138 141 145 148 152 155 160 165 168 171 173 173 173 174 172 171 173 175 176 173 172 172 183 190 194 191 184 181 180 180
98 80 137 142 153 144 138 136 134 130 131 132 132 134 137 142 143 148 155 163 168 170 173 176 178 177 179 180 178 179 179 180 174 171 181 188 190 192 192 190 189 189 187
99 68 78 113 141 144 140 136 135 131 130 133 132 129 126 126 133 141 148 158 166 172 178 182 184 183 183 183 181 180 183 185 178 178 185 192 196 199 197 196 196 197 194
78 68 50 82 119 137 137 137 135 130 125 126 125 123 119 116 120 127 136 149 164 168 176 186 191 192 188 184 182 183 186 186 174 178 188 193 199 202 202 204 204 202 200
67 54 43 49 70 97 118 129 128 126 124 116 113 113 110 116 119 115 129 149 162 167 185 202 202 196 195 192 190 190 189 187 179 180 189 199 202 203 202 203 202 200 203
88 39 39 38 47 68 95 120 116 114 108 98 93 94 86 71 66 63 81 128 172 198 215 217 211 199 191 193 195 192 193 181 172 181 194 206 205 208 206 206 204 205 205
196 231 37 32 33 50 84 65 59 70 68 71 71 68 69 68 62 47 19 356 344 346 300 225 198 186 173 175 191 186 179 173 172 185 202 209 211 213 209 204 203 201 198
196 190 89 75 57 65 64 65 60 57 56 57 62 65 71 66 52 37 19 359 1 9 14 24 69 115 124 140 149 145 153 162 173 192 206 211 213 214 210 202 203 198 196
150 167 119 112 96 85 83 68 70 61 53 53 52 65 79 69 52 40 25 11 19 27 36 50 80 98 106 121 144 153 164 170 176 193 210 214 216 217 210 202 202 199 201
164 167 158 144 129 105 91 77 82 67 62 66 58 58 83 85 68 48 30 27 34 43 51 64 84 93 98 101 139 160 175 181 180 192 214 214 213 213 212 208 203 203 202
170 168 156 148 146 124 115 108 86 80 77 72 56 52 79 87 83 65 39 33 33 46 60 80 92 94 97 103 104 129 167 176 178 190 210 225 215 206 206 210 207 207 205
168 161 154 153 142 135 131 130 97 86 83 73 56 55 74 83 85 79 59 31 16 32 62 71 73 85 101 101 90 107 138 172 177 182 196 208 217 215 208 205 211 215 216
158 150 151 150 142 147 138 123 97 85 80 62 57 56 58 59 68 72 57 21 10 45 70 80 74 83 80 92 92 78 93 137 172 182 194 192 193 210 215 210 217 222 221
156 147 137 133 140 144 125 107 94 82 75 64 61 57 46 48 64 82 57 18 37 62 58 84 80 102 106 105 111 91 82 154 182 199 210 210 209 214 223 232 233 231 231
141 138 134 127 123 120 107 92 80 72 61 60 56 40 49 51 64 80 77 33 70 80 62 66 89 83 95 109 90 58 39 338 154 220 231 221 217 221 227 237 245 242 240
143 141 141 137 133 123 108 113 106 81 47 49 45 38 53 57 52 64 52 45 63 85 83 83 97 83 60 77 89 45 22 14 332 251 236 223 240 239 236 236 238 240 240
165 162 156 156 149 145 142 136 135 130 116 104 34 41 44 60 56 59 67 61 64 82 65 62 85 99 57 57 102 96 1 353 346 295 243 224 243 244 246 238 233 236 241
180 182 176 171 159 153 140 114 95 73 50 44 33 23 16 50 63 63 72 78 66 82 89 71 93 125 130 58 68 132 151 238 305 329 301 256 246 239 255 254 240 242 243
191 179 163 160 155 148 138 140 142 142 157 204 168 46 12 34 50 61 75 83 84 84 84 77 86 111 135 149 55 42 165 164 169 312 326 320 287 259 257 263 259 247 245
180 169 165 156 151 146 148 155 147 150 166 128 84 62 30 15 24 37 76 88 85 77 84 74 70 78 116 143 160 174 182 77 156 205 279 313 325 292 270 260 256 252 246
168 164 162 156 164 161 155 155 159 164 156 131 95 65 11 8 0 357 66 82 86 80 78 91 104 99 104 113 123 126 146 164 199 201 241 276 292 299 298 277 266 260 250
Height
1491 1491 1491 1491 1491 1491 1491 1491 1491 1492 1493 1494 1495 1497 1499 1501 1502 1504 1506 1508 1510 1512 1514 1515 1517 1517 1516 1515 1520 1524 1527 1529 1532 1534 1536 1538 1539 1541 1543 1545 1546 1548 1549
1491 1491 1491 1491 1491 1492 1492 1492 1493 1493 1494 1495 1497 1498 1500 1502 1503 1505 1507 1509 1511 1513 1514 1516 1517 1518 1518 1519 1522 1525 1527 1530 1532 1534 1536 1538 1540 1541 1543 1545 1546 1548 1549
1491 1491 1491 1491 1492 1492 1492 1493 1494 1495 1496 1496 1497 1499 1501 1503 1504 1506 1508 1510 1511 1513 1515 1516 1517 1519 1520 1521 1523 1525 1528 1530 1532 1534 1536 1538 1539 1541 1543 1545 1546 1548 1550
1491 1491 1491 1491 1492 1493 1493 1494 1496 1497 1497 1498 1499 1500 1502 1504 1506 1507 1509 1510 1512 1513 1515 1516 1518 1519 1520 1522 1524 1526 1528 1530 1531 1534 1536 1537 1539 1541 1542 1544 1546 1548 1549
1492 1491 1491 1491 1492 1493 1494 1496 1497 1498 1499 1500 1501 1502 1504 1505 1507 1508 1509 1511 1512 1514 1515 1516 1518 1519 1521 1522 1524 1526 1528 1530 1531 1533 1535 1537 1539 1540 1542 1543 1545 1547 1549
1493 1492 1491 1490 1491 1493 1496 1497 1499 1500 1501 1502 1503 1504 1505 1507 1508 1509 1510 1511 1512 1514 1515 1516 1518 1519 1521 1522 1524 1526 1528 1530 1531 1533 1535 1536 1538 1539 1541 1543 1545 1547 1548
1495 1494 1492 1489 1489 1494 1498 1499 1501 1502 1503 1504 1505 1506 1507 1508 1509 1510 1511 1511 1513 1514 1515 1516 1517 1519 1520 1522 1524 1526 1527 1529 1531 1533 1534 1536 1537 1539 1541 1542 1544 1546 1547
1497 1496 1495 1491 1491 1496 1499 1501 1502 1504 1505 1505 1506 1507 1508 1509 1510 1511 1511 1512 1513 1514 1515 1516 1517 1518 1520 1522 1523 1525 1527 1529 1530 1532 1534 1535 1537 1538 1540 1541 1543 1545 1546
1499 1499 1499 1498 1498 1501 1503 1504 1505 1506 1506 1507 1508 1509 1510 1510 1511 1511 1512 1512 1513 1514 1514 1515 1516 1517 1519 1521 1523 1525 1527 1529 1530 1532 1533 1535 1536 1537 1538 1540 1541 1543 1545
1502 1502 1502 1502 1503 1504 1505 1506 1507 1508 1509 1509 1510 1510 1511 1511 1512 1512 1512 1512 1513 1513 1514 1515 1515 1517 1518 1520 1523 1524 1526 1528 1530 1531 1532 1534 1535 1536 1537 1539 1540 1541 1543
1503 1504 1505 1505 1506 1507 1508 1508 1509 1510 1511 1511 1512 1512 1512 1513 1513 1513 1513 1513 1512 1512 1512 1513 1514 1515 1517 1520 1522 1524 1526 1528 1529 1530 1532 1533 1534 1535 1536 1537 1538 1540 1541
1505 1506 1507 1508 1508 1509 1510 1510 1511 1512 1512 1513 1513 1513 1514 1514 1514 1514 1513 1513 1512 1511 1510 1510 1512 1514 1517 1519 1522 1524 1525 1527 1528 1529 1531 1532 1533 1534 1535 1536 1537 1538 1539
1507 1508 1508 1509 1510 1511 1511 1512 1513 1513 1514 1514 1515 1515 1515 1515 1515 1515 1514 1513 1512 1510 1509 1510 1511 1514 1516 1519 1522 1523 1525 1526 1527 1528 1529 1531 1531 1532 1533 1534 1535 1536 1537
1509 1510 1510 1511 1512 1512 1513 1514 1514 1515 1515 1516 1516 1516 1516 1516 1516 1515 1515 1514 1512 1511 1510 1510 1511 1514 1516 1519 1521 1523 1524 1526 1527 1528 1528 1529 1530 1531 1532 1532 1533 1534 1536
1510 1511 1512 1513 1513 1514 1514 1515 1516 1516 1517 1517 1517 1517 1517 1517 1517 1516 1516 1515 1514 1513 1512 1512 1513 1515 1517 1519 1521 1523 1524 1525 1526 1527 1528 1528 1529 1530 1530 1531 1532 1533 1534
1510 1511 1513 1514 1514 1515 1516 1516 1517 1517 1518 1518 1518 1518 1518 1518 1518 1517 1517 1516 1515 1515 1514 1515 1515 1517 1518 1520 1521 1523 1524 1525 1525 1526 1527 1528 1528 1528 1529 1530 1530 1532 1533
1511 1512 1513 1514 1515 1515 1516 1517 1517 1518 1518 1518 1518 1518 1518 1518 1518 1518 1517 1517 1516 1516 1516 1516 1517 1517 1519 1520 1521 1522 1523 1524 1525 1525 1526 1527 1527 1527 1528 1529 1529 1530 1531
1511 1512 1513 1514 1515 1516 1516 1517 1518 1518 1518 1518 1518 1518 1518 1518 1518 1518 1518 1517 1517 1517 1516 1517 1517 1517 1518 1519 1521 1522 1522 1523 1524 1525 1525 1526 1526 1526 1527 1527 1528 1529 1530
1511 1512 1513 1514 1515 1516 1517 1517 1517 1518 1518 1518 1518 1518 1518 1518 1518 1518 1518 1517 1517 1517 1517 1517 1517 1518 1518 1519 1520 1521 1521 1522 1523 1524 1524 1525 1525 1526 1526 1526 1527 1527 1528
1512 1513 1514 1514 1515 1516 1517 1517 1517 1518 1518 1518 1518 1518 1518 1518 1518 1518 1517 1517 1517 1517 1517 1517 1517 1518 1518 1519 1519 1520 1520 1521 1522 1522 1523 1524 1524 1525 1525 1525 1525 1526 1526
1512 1512 1513 1515 1515 1516 1516 1517 1517 1517 1517 1517 1517 1518 1518 1517 1517 1517 1517 1516 1517 1517 1517 1517 1517 1517 1518 1518 1519 1519 1520 1520 1520 1521 1522 1522 1523 1523 1524 1524 1524 1524 1524
1511 1512 1513 1514 1515 1516 1516 1517 1517 1517 1517 1517 1517 1517 1517 1517 1516 1516 1516 1516 1516 1516 1516 1516 1517 1517 1517 1518 1518 1518 1518 1520 1519 1519 1520 1520 1520 1521 1522 1522 1522 1522 1523
1510 1512 1513 1514 1515 1516 1516 1517 1517 1517 1517 1516 1516 1516 1516 1516 1516 1516 1515 1515 1515 1515 1515 1516 1516 1516 1516 1517 1517 1518 1518 1517 1518 1518 1518 1518 1519 1519 1520 1520 1520 1521 1521
1509 1511 1513 1514 1515 1515 1516 1516 1516 1516 1516 1516 1516 1516 1516 1516 1515 1515 1515 1515 1514 1514 1514 1514 1515 1515 1515 1515 1516 1516 1517 1517 1517 1516 1517 1517 1517 1517 1518 1518 1518 1518 1518
1508 1510 1512 1513 1514 1515 1515 1516 1516 1516 1515 1515 1515 1515 1515 1515 1514 1514 1514 1513 1513 1513 1513 1513 1513 1514 1514 1514 1514 1515 1515 1515 1515 1515 1515 1515 1515 1515 1515 1515 1515 1515 1515
1507 1509 1510 1512 1513 1514 1514 1515 1515 1515 1515 1515 1514 1514 1514 1514 1514 1513 1513 1512 1512 1512 1512 1512 1512 1512 1512 1513 1513 1513 1513 1513 1513 1513 1513 1513 1513 1513 1513 1512 1512 1512 1512